COSMOS 44

Satellite information

Favourite Embed

Satellite Type and Status

PAYLOADIN ORBIT

Key statistics

Satellite COSMOS 44 at a glance.

Uptime

22388

Days in orbit

Revolutions

≈ 14.7

Per day

Orbit

LEO

Low Earth Orbit

Inclination

65.1

Latest

Satellite identification and parameters

Extended collection of information and parameters for COSMOS 44.

Object identification

Identified? True

Debris? False

Object name: COSMOS 44

International designator: 1964-053A

Object number (NORAD): 876

Object ID (CCSDS): 876

Country: COMMONWEALTH OF INDEPENDENT STATES (CIS)

Current information (Y/N): Y

RCS size: LARGE

Orbital parameters

Period: 98.254 minutes

Inclination: 65.0587 deg

SMA: 7053.344 km

Apoapsis: 776.061 km

Periapsis: 574.358 km

RAAN: 158.1332 deg

Eccentricy: 0.01429833

Argument of periapsis: 329.4308 deg

Mean anomaly: 29.8516 deg

Mean motion: 14.65581986 rev/day

Mean motion (dot): 0.00000329 rev/day2

B* drag term: 0.000074644176 1/REarth

Two-line elements (TLE)

Creation date: Dec. 12, 2025, 10:14 a.m.

Reference frame: TEME

Reference center: EARTH

Epoch: Dec. 12, 2025, 5:36 a.m. UTC

TLE line 0: 0 COSMOS 44

TLE line 1: 1 00876U 64053A 25346.23381655 .00000329 00000-0 74644-4 0 9995

TLE line 2: 2 00876 65.0587 158.1332 0142983 329.4308 29.8516 14.65581986261275

Live tracking on map

Real-time ground track for satellite COSMOS 44.

In-orbit conjunctions

A list of the most updated potential collisions computed for object COSMOS 44.

Target Orbit TCA Probability of collision Miss distance Type
CZ-6A DEB SSO 2025-12-04 06:45:44 0.0004494539 862.0 (m) DEBRIS
CZ-6A DEB LEO 2025-10-27 11:31:48 0.00108533 48.0 (m) DEBRIS
FENGYUN 1C DEB SSO 2025-07-09 06:18:08 0.0001349713 240.0 (m) DEBRIS
DELTA 1 DEB SSO 2024-11-04 12:29:52 0.0001794924 206.0 (m) DEBRIS
COSMOS 2251 DEB LEO 2024-10-16 09:18:00 0.0001973212 634.0 (m) DEBRIS

Associated space launch

The Meteor-1 series was the first series of Soviet meteorological satellites.

COSMOS 44 was lifted into orbit during the mission ‘Vostok 8A92M | Meteor-1 1’, on board a Vostok 8A92M space rocket.

The launch took place on Aug. 28, 1964, 4 p.m. from 31/6.

For more information about the launch, click the button.

Launch to space Vostok 8A92M | Meteor-1 1
Vostok 8A92M | Meteor-1 1

Agency: N/A

Status: Launch Successful

Launch date: Aug. 28, 1964, 4 p.m. UTC

Rocket: Vostok 8A92M

Launch pad: 31/6

Location: Baikonur Cosmodrome, Republic of Kazakhstan

...

Latest news about this satellite

There are no fresh news available about this satellite. Check back as we update our databases every day.


Newsletter sign-up

Weekly statistics, charts and insights to help you stay on top of the space industry.